Regional Weather Roundup
Issued by NWS

Home | Current Version | Previous Version | Text Only | Print | Product List | Glossary Off
Versions: 1 2 3 4 5 6 7 8 9 10 11 12 13 14 15 16 17 18 19 20 21 22 23 24 25 26 27 28

000
ASUS45 KBOI 250610
RWRID
WEATHER ROUNDUP FOR IDAHO
NATIONAL WEATHER SERVICE BOISE ID
1200 AM MDT SAT OCT 25 2014

NOTE: "FAIR" INDICATES FEW OR NO CLOUDS BELOW 12000 FEET
WITH NO SIGNIFICANT WEATHER AND/OR OBSTRUCTIONS TO VISIBILITY

IDZ012-014-250700-
SOUTHWEST IDAHO


CITY           SKY/WX    TMP DP  RH WIND       PRES   REMARKS
BOISE          MOCLDY    49  47  93 CALM      29.94F
CALDWELL       MOCLDY    48  39  71 CALM      29.96S
MOUNTAIN HOME  PTCLDY    47  47 100 CALM      29.95F FOG
$$

IDZ016-017-250700-
SOUTHCENTRAL IDAHO


CITY           SKY/WX    TMP DP  RH WIND       PRES   REMARKS
BURLEY         CLEAR     46  34  62 E3        30.00F
JEROME         CLEAR     50  29  44 NE16      29.99F
TWIN FALLS     CLEAR     57  29  34 S10       29.99S
$$

IDZ019>023-250700-
SOUTHEAST IDAHO


CITY           SKY/WX    TMP DP  RH WIND       PRES   REMARKS
IDAHO FALLS    CLEAR     39  30  70 CALM      30.11S
POCATELLO      CLEAR     47  30  51 NE10      30.07S
REXBURG        CLEAR     40  31  70 NE6       30.13R
$$

IDZ006-010-011-018-031-032-250700-
CENTRAL IDAHO MOUNTAINS


CITY           SKY/WX    TMP DP  RH WIND       PRES   REMARKS
MCCALL         CLOUDY    38  37  97 CALM      30.01S FOG
HAILEY         PTCLDY    43  32  65 NW13      30.12F
STANLEY          N/A     32  29  88 W3        30.14S
SALMON         MOCLDY    37  37 100 SE3       30.10S
CHALLIS        PTCLDY    38  35  89 CALM      30.10S
$$

IDZ002-004-006-007-026-250700-
NORTHERN IDAHO


CITY           SKY/WX    TMP DP  RH WIND       PRES   REMARKS
LEWISTON       CLOUDY    49  48  97 SE5       29.92F
LOWELL           N/A     49  48  97 NW3       30.00F
COEUR D`ALENE  CLOUDY    46  43  87 N10       29.97F
MULLAN PASS    FOG       36  36 100 SE7       30.02F VSB 1/4 WCI  30
$$



USA.gov is the U.S. government's official web portal to all federal, state and local government web resources and services.